Weather in Rudny

Kazakhstan     52°57′51″N   63°08′00″E
temp.,
°C
wind,
m/s
gust,
m/s
humid.,
%
clouds,
%
prec.,
mm/h
press.,
hPa
HPBL,
m
18 april, sun
sun1800:00+9ene11765 0.0 102011
03:00+8e11825 0.1 101810
06:00+7ssw11845 0.1 101710
09:00+10wnw24770 0.0 1016129
12:00+14nnw45653 0.0 1015733
15:00+14n66441 0.0 10151215
18:00+13nne78395 0.0 10161616
21:00+7ne913545 0.0 1020903
19 april, mon
mon1900:00+2ne9135410 0.0 1024877
03:000ene8115897 0.0 1026977
06:00−2ne7115210 0.0 1029936
09:00−2ne810435 0.0 1030939
12:00+1ne893312 0.0 10311320
15:00+2ne783096 0.0 10301610
18:00+2ne8830100 0.0 10301691
21:00−1ene6104171 0.0 1032521
20 april, tue
tue2000:00−2ene59450 0.0 1033675
03:00−3ene38460 0.0 1033529
06:00−3ne36520 0.0 1034224
09:00−1ne47390 0.0 10351063
12:00+2ne56290 0.0 10351462
15:00+4ne44285 0.0 10331553
18:00+5n34290 0.0 10321490
21:00+3wnw11390 0.0 103110
21 april, wed
wed2100:00+1w22460 0.0 103116
03:00+1w36500 0.0 1031106
06:000wnw38560 0.0 1030144
09:00+4nnw47560 0.0 1031274
12:00+8n56450 0.0 10311061
15:00+11n453927 0.0 10311732
18:00+12nne463980 0.0 10311916
21:00+8ene34577 0.0 103375
22 april, thu
thu2200:00+6e33635 0.0 103554
03:00+4ese22585 0.0 103615
06:00+3se22635 0.0 103716
09:00+5sse23540 0.0 1039204
12:00+10se33390 0.0 1039995
15:00+12se33320 0.0 10381480
18:00+13se33290 0.0 10371555
21:00+9se36430 0.0 103896